Location: Cardiff
(53.7833°N, 113.6000°W)
Time: 20:32:48
(UTC+00:00)

Oscar 19 - Pass Details

Date: 09 December 2023
Orbit: 771 x 789 km, 98.9° (Epoch: 04 March)

Event Time Altitude Azimuth Distance (km) Brightness Sun altitude
Rises 13:08:09 0° 14° (NNE) 3,276 13.9 -20.9°
Reaches altitude 10° 13:10:29 10° 10° (N) 2,347 13.1 -20.6°
Maximum altitude 13:15:33 57° 293° (WNW) 922 10.6 -19.8°
Drops below altitude 10° 13:20:36 10° 216° (SW) 2,343 12.9 -19.1°
Sets 13:22:57 0° 212° (SSW) 3,270 13.7 -18.8°
